LUCH-5V

Last updated on Sun Aug 31 2025 00:02:48 GMT+0000 (Coordinated Universal Time)

1 39727U 14023A 25242.19018400 -.00000266 00000+0 00000+0 0 9999 2 39727 4.3989 72.5101 0002800 123.2414 306.0761 1.00270302 41447
UTC large
Height (km)
Speed (km/s)
/
Latitude / Longitude
Inclination (degrees)
Orbital Period (minutes)
Azimuth
Elevation
Range (km)
Doppler Factor

Next 0 passes for location: London (51.5072 / 0.1276)

Sorry there are no passes over London.